Weather History for KIRS - October, 2012

Change the Weather History Date:

Monday, October 8, 2012

  Actual Average (KAZO) Record (KAZO)
Temperature  
Mean Temperature 40 °F 53 °F  
Max Temperature 53 °F 64 °F - ()
Min Temperature 28 °F 43 °F - ()
Degree Days  
Heating Degree Days 24 12  
Month to date heating degree days 87  
Since 1 July heating degree days 236  
Cooling Degree Days 0 0  
Month to date cooling degree days 7  
Year to date cooling degree days 674  
Moisture  
Dew Point 29 °F    
Average Humidity 67    
Maximum Humidity 100    
Minimum Humidity 35    
Precipitation  
Precipitation 0.00 in 0.09 in - ()
Month to date precipitation 0.87  
Year to date precipitation 28.28  
Sea Level Pressure  
Sea Level Pressure 30.14 in    
Wind  
Wind Speed 3 mph (SSW)    
Max Wind Speed 13 mph    
Max Gust Speed 20 mph    
Visibility 10 miles    
Events      
T = Trace of Precipitation, MM = Missing Value Source: NWS Daily Summary

Daily Weather History Graph

Daily Weather History Graph

Search for Another Location

Airport or City:

Trip Planner

Search our weather history database for the weather conditions in past years. The results will help you decide how hot, cold, wet, or windy it might be!

Date:

Astronomy

Oct. 08, 2012 Rise Set
Actual Time 7:46 AM EDT 7:10 PM EDT
Civil Twilight 7:18 AM EDT 7:38 PM EDT
Nautical Twilight 6:46 AM EDT 8:10 PM EDT
Astronomical Twilight 6:14 AM EDT 8:43 PM EDT
Moon 12:19 AM EDT (10/8) 3:05 PM EDT (10/8)
Length of Visible Light 12h 19m
Length of Day
11h 24m
Waning Gibbous, 46% of the Moon is Illuminated
Oct 8
Waning Gibbous
Oct 15
New
Oct 21
First Quarter
Oct 29
Full
Nov 6
Last Quarter

Hourly Weather History & Observations

Time (EDT) Temp. Windchill Dew Point Humidity Pressure Visibility Wind Dir Wind Speed Gust Speed Precip Events Conditions
12:15 AM 33.8 °F - 32.0 °F 93% 30.15 in 10.0 mi Calm Calm - N/A   Clear
12:34 AM 33.8 °F - 30.2 °F 87% 30.15 in 10.0 mi Calm Calm - N/A   Clear
12:55 AM 33.8 °F - 30.2 °F 87% 30.15 in 10.0 mi Calm Calm - N/A   Clear
1:15 AM 32.0 °F - 30.2 °F 93% 30.14 in 10.0 mi Calm Calm - N/A   Clear
1:34 AM 32.0 °F - 30.2 °F 93% 30.15 in 10.0 mi Calm Calm - N/A   Clear
1:55 AM 33.8 °F - 30.2 °F 87% 30.16 in 10.0 mi Calm Calm - N/A   Clear
2:15 AM 33.8 °F - 32.0 °F 93% 30.16 in 10.0 mi Calm Calm - N/A   Mostly Cloudy
2:34 AM 33.8 °F - 32.0 °F 93% 30.16 in 10.0 mi Calm Calm - N/A   Mostly Cloudy
2:55 AM 33.8 °F - 32.0 °F 93% 30.17 in 10.0 mi Calm Calm - N/A   Scattered Clouds
3:15 AM 33.8 °F - 30.2 °F 87% 30.17 in 10.0 mi Calm Calm - N/A   Scattered Clouds
3:34 AM 32.0 °F - 30.2 °F 93% 30.16 in 10.0 mi Calm Calm - N/A   Clear
3:55 AM 33.8 °F - 30.2 °F 87% 30.16 in 10.0 mi Calm Calm - N/A   Clear
4:14 AM 32.0 °F - 30.2 °F 93% 30.16 in 10.0 mi Calm Calm - N/A   Clear
4:35 AM 32.0 °F - 30.2 °F 93% 30.15 in 10.0 mi Calm Calm - N/A   Clear
4:55 AM 33.8 °F - 30.2 °F 87% 30.15 in 10.0 mi Calm Calm - N/A   Clear
5:14 AM 32.0 °F - 30.2 °F 93% 30.16 in 10.0 mi Calm Calm - N/A   Clear
5:35 AM 30.2 °F - 30.2 °F 100% 30.16 in 10.0 mi Calm Calm - N/A   Clear
5:55 AM 30.2 °F - 28.4 °F 93% 30.16 in 10.0 mi Calm Calm - N/A   Clear
6:14 AM 30.2 °F 26.7 °F 28.4 °F 93% 30.16 in 10.0 mi South 3.5 mph - N/A   Clear
6:35 AM 30.2 °F - 28.4 °F 93% 30.17 in 10.0 mi Calm Calm - N/A   Clear
6:55 AM 30.2 °F 26.7 °F 28.4 °F 93% 30.17 in 10.0 mi South 3.5 mph - N/A   Clear
7:14 AM 30.2 °F - 28.4 °F 93% 30.17 in 10.0 mi Calm Calm - N/A   Clear
7:35 AM 28.4 °F - 26.6 °F 93% 30.18 in 10.0 mi Calm Calm - N/A   Clear
7:54 AM 30.2 °F - 26.6 °F 86% 30.19 in 10.0 mi Calm Calm - N/A   Clear
8:15 AM 30.2 °F - 26.6 °F 86% 30.19 in 10.0 mi Calm Calm - N/A   Clear
8:35 AM 30.2 °F - 28.4 °F 93% 30.19 in 10.0 mi Calm Calm - N/A   Clear
8:54 AM 32.0 °F - 28.4 °F 87% 30.19 in 10.0 mi Calm Calm - N/A   Clear
9:15 AM 33.8 °F - 30.2 °F 87% 30.19 in 10.0 mi Calm Calm - N/A   Clear
9:35 AM 37.4 °F 34.9 °F 30.2 °F 75% 30.20 in 10.0 mi SW 3.5 mph - N/A   Clear
9:54 AM 39.2 °F 35.0 °F 30.2 °F 70% 30.19 in 10.0 mi SW 5.8 mph - N/A   Clear
10:15 AM 41.0 °F 37.1 °F 32.0 °F 70% 30.19 in 10.0 mi SW 5.8 mph - N/A   Clear
10:35 AM 42.8 °F 38.6 °F 33.8 °F 70% 30.19 in 10.0 mi SW 6.9 mph - N/A   Clear
10:54 AM 44.6 °F 39.2 °F 32.0 °F 61% 30.19 in 10.0 mi SSW 10.4 mph - N/A   Clear
11:15 AM 46.4 °F 41.5 °F 30.2 °F 53% 30.19 in 10.0 mi WSW 10.4 mph - N/A   Clear
11:34 AM 46.4 °F 40.7 °F 28.4 °F 50% 30.19 in 10.0 mi SW 12.7 mph - N/A   Clear
11:55 AM 48.2 °F - 28.4 °F 46% 30.19 in 10.0 mi SW 8.1 mph - N/A   Clear
12:15 PM 48.2 °F - 28.4 °F 46% 30.20 in 10.0 mi SW 10.4 mph - N/A   Clear
12:34 PM 48.2 °F - 28.4 °F 46% 30.19 in 10.0 mi SW 9.2 mph - N/A   Clear
12:55 PM 48.2 °F - 28.4 °F 46% 30.19 in 10.0 mi SSW 10.4 mph - N/A   Clear
1:15 PM 48.2 °F - 28.4 °F 46% 30.18 in 10.0 mi SSW 11.5 mph 19.6 mph N/A   Clear
1:34 PM 50.0 °F - 26.6 °F 40% 30.17 in 10.0 mi SSW 9.2 mph 17.3 mph N/A   Clear
1:55 PM 51.8 °F - 28.4 °F 41% 30.16 in 10.0 mi SW 10.4 mph - N/A   Clear
2:15 PM 51.8 °F - 26.6 °F 38% 30.15 in 10.0 mi SW 11.5 mph 16.1 mph N/A   Clear
2:35 PM 51.8 °F - 28.4 °F 41% 30.13 in 10.0 mi SW 10.4 mph 17.3 mph N/A   Clear
2:55 PM 51.8 °F - 28.4 °F 41% 30.12 in 10.0 mi WSW 11.5 mph 17.3 mph N/A   Clear
3:14 PM 51.8 °F - 26.6 °F 38% 30.12 in 10.0 mi SSW 6.9 mph 16.1 mph N/A   Clear
3:35 PM 51.8 °F - 26.6 °F 38% 30.11 in 10.0 mi SSW 10.4 mph - N/A   Clear
3:55 PM 53.6 °F - 26.6 °F 35% 30.11 in 10.0 mi South 10.4 mph - N/A   Clear
4:14 PM 53.6 °F - 26.6 °F 35% 30.10 in 10.0 mi SW 6.9 mph - N/A   Clear
4:35 PM 53.6 °F - 28.4 °F 38% 30.10 in 10.0 mi SW 9.2 mph 16.1 mph N/A   Clear
4:55 PM 53.6 °F - 28.4 °F 38% 30.10 in 10.0 mi SW 9.2 mph - N/A   Clear
5:14 PM 51.8 °F - 26.6 °F 38% 30.09 in 10.0 mi SW 12.7 mph - N/A   Clear
5:35 PM 51.8 °F - 26.6 °F 38% 30.09 in 10.0 mi SW 11.5 mph - N/A   Clear
5:55 PM 51.8 °F - 26.6 °F 38% 30.09 in 10.0 mi SSW 6.9 mph - N/A   Clear
6:14 PM 51.8 °F - 26.6 °F 38% 30.08 in 10.0 mi SSW 9.2 mph - N/A   Clear
6:35 PM 51.8 °F - 26.6 °F 38% 30.08 in 10.0 mi SSW 9.2 mph - N/A   Clear
6:55 PM 48.2 °F - 28.4 °F 46% 30.08 in 10.0 mi SSW 5.8 mph - N/A   Clear
7:15 PM 46.4 °F 44.3 °F 28.4 °F 50% 30.07 in 10.0 mi South 4.6 mph - N/A   Clear
7:35 PM 44.6 °F 42.2 °F 28.4 °F 53% 30.08 in 10.0 mi South 4.6 mph - N/A   Clear
7:55 PM 44.6 °F 43.1 °F 28.4 °F 53% 30.08 in 10.0 mi South 3.5 mph - N/A   Clear
8:15 PM 44.6 °F 43.1 °F 28.4 °F 53% 30.08 in 10.0 mi South 3.5 mph - N/A   Clear
8:35 PM 42.8 °F 41.1 °F 28.4 °F 57% 30.08 in 10.0 mi South 3.5 mph - N/A   Clear
8:55 PM 41.0 °F - 28.4 °F 61% 30.09 in 10.0 mi Calm Calm - N/A   Clear
9:15 PM 41.0 °F - 28.4 °F 61% 30.09 in 10.0 mi Calm Calm - N/A   Clear
9:35 PM 41.0 °F - 28.4 °F 61% 30.09 in 10.0 mi Calm Calm - N/A   Clear
9:55 PM 39.2 °F - 28.4 °F 65% 30.10 in 10.0 mi Calm Calm - N/A   Clear
10:15 PM 39.2 °F - 28.4 °F 65% 30.10 in 10.0 mi Calm Calm - N/A   Clear
10:35 PM 39.2 °F 35.9 °F 28.4 °F 65% 30.10 in 10.0 mi SSE 4.6 mph - N/A   Clear
10:55 PM 37.4 °F 33.8 °F 28.4 °F 70% 30.10 in 10.0 mi South 4.6 mph - N/A   Clear
11:15 PM 39.2 °F 35.0 °F 28.4 °F 65% 30.10 in 10.0 mi South 5.8 mph - N/A   Clear
11:55 PM 39.2 °F 35.0 °F 28.4 °F 65% 30.09 in 10.0 mi South 5.8 mph - N/A   Clear